Rockville, MD (20851)

12:12 PM EST on February 09, 2016 (GMT -0500)
Twinbrook | | Change Station
CLOSE
Current Station
Personal Weather Station
Location: Rockville, MD
Elevation: 377 ft
Nearby Weather Stations
Active Advisory: Winter Weather Advisory Active Notice: Public Information Statement

Elev 377 ft 39.08 °N, 77.12 °W | Updated 1 second ago

Snow
Snow
37.9 °F
Feels Like 38 °F
N
0.0
Wind Variable Wind from NW
Gusts 0.0 mph

Today
High -- | Low -- °F
--% Chance of Precip.
Yesterday
High -- | Low -- °F
Precip. -- in
Pressure 29.59 in
Visibility 2.5 miles
Clouds Overcast 400 ft
Windchill 38 °F
Dew Point 36 °F
Humidity 94%
Rainfall 0.12 in
Snow Depth Not available.
7:07 AM 5:38 PM
New Moon, 2% visible
METAR KGAI 091655Z AUTO 00000KT 2 1/2SM OVC004 01/M01 A2959 RMK AO1 P0006
Pressure 29.59 in
Visibility 2.5 miles
Clouds Overcast 400 ft
Windchill 38 °F
Dew Point 36 °F
Humidity 94%
Rainfall 0.12 in
Snow Depth Not available.
7:07 AM 5:38 PM
New Moon, 2% visible
METAR KGAI 091655Z AUTO 00000KT 2 1/2SM OVC004 01/M01 A2959 RMK AO1 P0006

10-Day Weather Forecast

Almanac

Astronomy

Feb. 09, 2016 Rise Set
Actual Time
Civil Twilight
Nautical Twilight
Astronomical Twilight
Moon
Length of Visible Light
Length of Day
Tomorrow will be .
, % of the Moon is Illuminated

Today's Extremes

State Highs State Lows

Community

WunderPhotos

Upload Photos

1,891,636 photos uploaded!

WunderBlog® & News

Nearby

Air Quality

  Air Quality AQ Index Pollutant
Not available.

Snow Depth

Station Depth Elevation

Earthquake Activity

City Distance Mag. Time & Date
Minimum magnitude displayed is 2.5.

Coastal Water Temperatures

Place Temperature

Stations

Nearby Weather Stations

Station Location Temp. Windchill Dew Point Humidity Wind Precip. Elev Updated Type
                   

Watches & Warnings

Winter Weather Advisory
Issued: 11:49 AM EST Feb. 9, 2016 – National Weather Service

... Winter Weather Advisory remains in effect until midnight EST
tonight...

* precipitation type... snow.

* Accumulations... snow accumulation of 1 to 3 inches.

* Timing... into this evening before tapering off around midnight.

* Impacts... snow covered roads and travel disruptions possible.

* Winds... north 5 to 10 mph.

* Temperatures... in the lower 30s.

Precautionary/preparedness actions...

A Winter Weather Advisory for snow means that periods of snow
will cause primarily travel difficulties. Be prepared for snow
covered roads and limited visibilities... and use caution while
driving.